[[{"header":{"parameterUnit":"m.s-1","parameterCategory":1,"la1":30.2991,"la2":30.254,"lo1":-89.0895,"lo2":-89.0444,"dy":0.0017,"dx":0.0017,"nx":28,"ny":28,"refTime":"2023-06-26T21:00:00:Z","depth":0,"parameterNumber":2,"parameterNumberName":"U-component_of_WINDS"},"data":[0,0,0,0,0,0,0,0,0,0,0,0,0,0,0,0,0,0,0,0,0,0,0,0,0,0,0,0,0,0,0,0,0,0,0,0,0,0,0,0,0,0,0,0,0,0,0,0,0,0,0,0,0,0,0,0,0,0,4.5985,4.5984,0,4.5926,4.5926,4.5925,4.5823,4.5821,4.5819,4.5818,4.5758,4.5759,4.5759,0,0,0,0,0,0,0,0,0,0,0,0,0,4.601,4.601,4.5985,4.5984,4.5983,4.5927,4.5926,4.5925,4.5824,4.5821,4.5819,4.5817,4.5758,4.5759,4.5759,0,0,0,0,0,0,0,0,0,0,0,0,0,4.598,4.601,4.5985,4.5926,4.592,4.5927,4.5926,4.5925,4.5824,4.5821,4.5818,4.5816,4.5758,4.5759,4.5759,4.5819,0,0,4.576,4.576,0,0,0,0,0,0,0,0,4.5982,4.5979,4.5935,4.593,4.5923,4.5879,4.5913,4.5889,4.5825,4.5861,4.5818,4.5814,4.5801,4.5798,4.5793,4.5816,4.5813,4.576,4.576,4.576,4.576,0,0,0,0,0,0,0,4.5984,4.5981,4.5962,4.5935,4.5927,4.5903,4.5895,4.5908,4.5848,4.5857,4.585,4.5844,4.5797,4.5793,4.5791,4.5812,4.576,4.576,4.576,4.576,4.5884,4.5887,0,0,0,0,0,0,4.5995,4.5984,4.5963,4.596,4.5946,4.5905,4.5896,4.5896,4.5847,4.5837,4.5847,4.584,4.5794,4.5791,4.5788,4.5857,4.576,4.5761,4.5761,4.5881,4.5885,4.5888,0,0,0,0,0,0,4.5996,4.5994,4.5966,4.597,4.5964,4.5907,4.5908,4.5897,4.5892,4.5839,4.5828,4.5853,4.5791,4.5788,4.5812,4.5853,4.5761,4.5761,4.5878,4.5882,4.5887,4.5994,0,0,0,0,0,0,4.5997,4.5995,4.6016,4.5971,4.5964,4.5991,4.591,4.5898,4.5893,4.5883,4.5843,4.5833,4.5789,4.5813,4.5813,4.5852,4.5761,4.5874,4.588,4.5885,4.5986,4.6002,4.6015,0,0,0,0,0,4.5998,4.6048,4.6018,4.6016,4.599,4.5993,4.5989,4.5937,4.5897,4.5918,4.5885,4.5834,4.5849,4.5816,4.5815,4.5856,4.5871,4.5878,4.5885,4.598,4.5999,4.6014,0,0,0,0,0,0,4.6099,4.6041,4.6007,4.6044,4.6024,4.5976,4.6001,4.5958,4.595,4.5941,4.5877,4.5869,4.5902,4.5881,4.5845,4.5912,4.5852,4.5859,4.5925,4.5942,4.5956,4.5961,4.5761,0,0,0,0,0,4.6126,4.6133,4.6082,4.612,4.6112,4.6059,4.6058,4.602,4.5997,4.5988,4.5956,4.5936,4.5936,4.5938,4.5935,4.5983,4.5974,4.601,4.6024,4.6036,4.6044,4.607,4.6086,4.5911,4.5911,4.5911,0,0,4.6182,4.6151,4.6159,4.6139,4.612,4.6129,4.6052,4.6065,4.6072,4.599,4.6012,4.5988,4.5962,4.5999,4.6014,4.5982,4.609,4.6045,4.6055,4.6056,4.6079,4.6095,4.611,4.5916,4.5915,4.5914,0,0,4.6287,4.6264,4.6294,4.6276,4.6248,4.6212,4.622,4.6179,4.616,4.6181,4.612,4.6128,4.6129,4.6113,4.6106,4.6209,4.6163,4.6209,4.6283,4.631,4.6323,4.6335,4.6374,4.6389,4.6217,4.6217,4.6217,0,4.636,4.6371,4.6315,4.6332,4.6326,4.6253,4.6284,4.6269,4.6242,4.624,4.6205,4.6207,4.6184,4.6218,4.6243,4.6238,4.6246,4.6214,4.6326,4.6337,4.6348,4.6384,4.6398,4.6223,4.6222,4.6221,4.6221,0,4.6463,4.6472,4.6499,4.6475,4.6472,4.6497,4.6445,4.6449,4.6412,4.6381,4.6404,4.6374,4.6365,4.637,4.6333,4.64,4.6382,4.6337,4.6276,4.6371,4.6405,4.6418,4.6231,4.6229,4.6227,4.6226,0,0,4.663,4.6576,4.6587,4.6576,4.6541,4.6547,4.6569,4.656,4.6566,4.6549,4.6567,4.6571,4.6531,4.6522,4.6483,4.6506,4.6593,4.6459,4.6458,4.6487,4.6667,4.6701,4.6718,4.6562,4.6564,4.6566,4.6669,0,4.6729,4.6763,4.6714,4.6759,4.6768,4.67,4.6719,4.67,4.6672,4.6676,4.6645,4.665,4.6595,4.659,4.661,4.6578,4.6628,4.657,4.6579,4.658,4.6589,4.6735,4.6771,4.687,4.6682,4.6684,4.6685,0,4.6849,4.684,4.6887,4.685,4.6852,4.687,4.686,4.6864,4.6842,4.682,4.6812,4.6766,4.6786,4.6727,4.6755,4.6716,4.6717,4.6703,4.6705,4.6705,4.6639,4.674,4.69,4.6915,4.6705,4.6703,4.6702,0,4.6969,4.6968,4.6996,4.6989,4.6947,4.6962,4.6945,4.692,4.6918,4.691,4.6909,4.6902,4.6899,4.6896,4.685,4.6811,4.6885,4.682,4.6868,4.687,4.6887,4.6887,4.7051,4.6886,4.6886,4.6886,4.6886,0,4.7086,4.7118,4.705,4.7068,4.7102,4.7045,4.7081,4.7057,4.7036,4.7049,4.6989,4.7002,4.6941,4.6948,4.6912,4.6942,4.6941,4.6925,4.6915,4.6931,4.6933,4.6931,4.6924,4.689,4.6889,4.6888,4.6887,0,4.7226,4.7182,4.7208,4.7167,4.7157,4.7184,4.7149,4.7164,4.7133,4.715,4.7151,4.7103,4.7108,4.7062,4.7059,4.7035,4.7082,4.706,4.709,4.7084,4.7135,4.7132,4.7304,4.7325,4.7146,4.7148,4.715,0,4.7304,4.7326,4.7288,4.7292,4.7279,4.7286,4.7285,4.7231,4.7233,4.7211,4.7229,4.723,4.7228,4.724,4.7205,4.7203,4.7181,4.7242,4.7181,4.7197,4.7184,4.7184,4.7187,4.7256,4.7258,4.7259,4.7261,0,4.7447,4.7425,4.7425,4.742,4.742,4.7413,4.7401,4.7409,4.735,4.7356,4.7361,4.7359,4.7357,4.7359,4.7351,4.7334,4.7289,4.7281,4.7292,4.7309,4.7326,4.7319,4.7127,4.7277,4.7275,4.7274,4.7273,4.7273,4.7559,4.7577,4.7554,4.7557,4.7543,4.7535,4.7548,4.7519,4.7522,4.7516,4.7484,4.7496,4.7476,4.7459,4.7448,4.7457,4.7427,4.7443,4.7448,4.7453,4.7463,4.7324,4.7455,4.7454,4.7454,4.7453,4.7453,0,4.7701,4.7683,4.7687,4.7674,4.7677,4.7634,4.762,4.7626,4.7637,4.7621,4.7621,4.7629,4.7631,4.7597,4.7596,4.761,4.759,4.7612,4.761,4.7608,4.7488,4.7479,4.7628,4.7628,4.7628,4.7628,4.7628,4.7628,4.7776,4.7805,4.778,4.7803,4.7784,4.7795,4.7791,4.7784,4.7771,4.7782,4.7784,4.7762,4.774,4.7737,4.7738,4.7728,4.7731,4.7761,4.7744,4.7633,4.7616,4.76,4.7591,4.7761,4.7762,4.7863,4.7864,4.7865]},{"header":{"parameterUnit":"m.s-1","parameterCategory":1,"la1":30.2991,"la2":30.254,"lo1":-89.0895,"lo2":-89.0444,"dy":0.0017,"dx":0.0017,"nx":28,"ny":28,"refTime":"2023-06-26T21:00:00:Z","depth":0,"parameterNumber":3,"parameterNumberName":"V-component_of_WINDS"},"data":[0,0,0,0,0,0,0,0,0,0,0,0,0,0,0,0,0,0,0,0,0,0,0,0,0,0,0,0,0,0,0,0,0,0,0,0,0,0,0,0,0,0,0,0,0,0,0,0,0,0,0,0,0,0,0,0,0,0,0.9751,0.9753,0,0.9872,0.9874,0.9875,0.9926,0.9926,0.9926,0.9925,1.0052,1.0056,1.0059,0,0,0,0,0,0,0,0,0,0,0,0,0,0.9565,0.9568,0.9751,0.9753,0.9754,0.9872,0.9874,0.9875,0.9926,0.9926,0.9926,0.9925,1.0051,1.0055,1.006,0,0,0,0,0,0,0,0,0,0,0,0,0,0.9662,0.9569,0.9751,0.9794,0.9799,0.9872,0.9874,0.9876,0.9926,0.9926,0.9926,0.9925,1.005,1.0055,1.006,1.0101,0,0,1.0077,1.0079,0,0,0,0,0,0,0,0,0.9656,0.9669,0.9786,0.9791,0.9797,0.9884,0.9855,0.9951,0.9926,0.9878,0.9925,0.9925,0.9997,1.0006,1.003,1.0107,1.0112,1.0077,1.0081,1.0083,1.0084,0,0,0,0,0,0,0,0.9649,0.9664,0.9799,0.9787,0.9794,0.9807,0.982,0.9873,0.9938,0.9882,0.9886,0.99,1.0,1.0025,1.0033,1.0114,1.0077,1.0082,1.0085,1.0087,1.0228,1.0228,0,0,0,0,0,0,0.9635,0.9658,0.9795,0.9803,0.9724,0.9811,0.9826,0.9856,0.9938,0.9949,0.99,0.9901,1.0016,1.0027,1.0038,1.009,1.0083,1.0088,1.0091,1.0227,1.0228,1.0228,0,0,0,0,0,0,0.9631,0.9647,0.9791,0.9731,0.9751,0.9814,0.9848,0.9859,0.9884,0.9951,0.9963,0.9913,1.0016,1.0031,1.0084,1.0095,1.009,1.0095,1.0227,1.0228,1.0228,1.0194,0,0,0,0,0,0,0.9626,0.9645,0.9661,0.9731,0.9754,0.9834,0.9849,0.9861,0.9893,0.9896,0.9967,0.9978,1.0017,1.0076,1.0089,1.0102,1.01,1.0226,1.0227,1.0228,1.0194,1.0193,1.0192,0,0,0,0,0,0.9619,0.9648,0.9662,0.9678,0.9775,0.9835,0.9848,0.989,0.9893,0.991,0.9952,0.9976,1.0091,1.0081,1.0097,1.0111,1.0226,1.0227,1.0228,1.0195,1.0193,1.0192,0,0,0,0,0,0,0.958,0.9658,0.9675,0.9727,0.9773,0.9843,0.9866,0.9888,0.9936,0.9937,0.9989,1.0004,1.0053,1.0088,1.0075,1.0154,1.016,1.0165,1.013,1.0129,1.0128,1.0119,1.0104,0,0,0,0,0,0.9577,0.9618,0.9685,0.9725,0.9747,0.9802,0.983,0.9858,0.9909,0.993,0.9976,1.0025,1.0072,1.0102,1.015,1.0199,1.0215,1.0217,1.0215,1.0214,1.0218,1.0245,1.0246,1.0232,1.0232,1.0232,0,0,0.9572,0.962,0.9643,0.9718,0.9758,0.9799,0.9819,0.9863,0.9894,0.9937,0.999,1.0025,1.0083,1.0134,1.0159,1.0164,1.0225,1.0216,1.0214,1.0219,1.0246,1.0248,1.0249,1.0233,1.0233,1.0233,0,0,0.9585,0.9625,0.9662,0.97,0.9759,0.9795,0.9803,0.9869,0.9894,0.9948,0.998,1.0018,1.0099,1.0138,1.0168,1.0192,1.0215,1.0206,1.0202,1.0228,1.0229,1.023,1.0238,1.024,1.0209,1.0209,1.0209,0,0.9572,0.9636,0.9679,0.972,0.9752,0.979,0.9827,0.9863,0.9934,0.9955,0.9959,1.0059,1.0101,1.0161,1.0167,1.019,1.0202,1.0199,1.0225,1.0227,1.0228,1.0237,1.024,1.0208,1.0208,1.0208,1.0208,0,0.9616,0.966,0.9682,0.9748,0.9782,0.9822,0.9871,0.99,0.9924,0.996,1.0013,1.0064,1.0121,1.0137,1.0163,1.0201,1.0202,1.0215,1.0223,1.0227,1.0236,1.024,1.0205,1.0206,1.0206,1.0207,0,0,0.961,0.9697,0.9704,0.9734,0.98,0.9835,0.9875,0.993,0.9953,1.0001,1.0036,1.0101,1.0113,1.0147,1.0177,1.02,1.0214,1.021,1.0212,1.0209,1.0258,1.0248,1.0251,1.0229,1.023,1.023,1.0253,0,0.9631,0.9705,0.9743,0.98,0.984,0.9875,0.9911,0.9955,0.9988,1.0027,1.0064,1.011,1.0122,1.0143,1.0166,1.0207,1.0225,1.0206,1.0263,1.0264,1.0247,1.0255,1.0246,1.0264,1.0256,1.0257,1.0257,0,0.9667,0.9711,0.9772,0.9831,0.9849,0.988,0.9932,0.9969,1.0019,1.0042,1.0078,1.0107,1.0151,1.0154,1.0215,1.0201,1.0226,1.0249,1.0251,1.0259,1.0261,1.0263,1.0271,1.0274,1.0263,1.0263,1.0262,0,0.9655,0.9731,0.9776,0.98,0.9871,0.9891,0.9922,0.9972,1.0001,1.0047,1.0066,1.0116,1.0144,1.0182,1.0223,1.0222,1.0279,1.0287,1.03,1.0298,1.0311,1.031,1.0324,1.0326,1.0326,1.0326,1.0326,0,0.9675,0.9711,0.9771,0.9799,0.984,0.9883,0.9922,0.9955,0.9999,1.0034,1.0068,1.01,1.0152,1.0191,1.0224,1.0268,1.0281,1.03,1.0309,1.0297,1.0295,1.0315,1.0315,1.0327,1.0327,1.0327,1.0327,0,0.967,0.9712,0.9764,0.9825,0.9841,0.9868,0.9921,0.995,0.9983,1.0027,1.004,1.0093,1.014,1.0185,1.0248,1.027,1.0315,1.0326,1.0297,1.0302,1.0312,1.0311,1.034,1.0346,1.0344,1.0344,1.0344,0,0.968,0.9708,0.9772,0.9797,0.9826,0.9866,0.9896,0.9939,0.9969,1.0026,1.0048,1.0097,1.0138,1.0212,1.0257,1.0305,1.0317,1.0324,1.0325,1.0312,1.0317,1.0315,1.0318,1.0323,1.0323,1.0323,1.0323,0,0.9694,0.9713,0.9753,0.9801,0.9835,0.9875,0.9916,0.9934,0.9985,1.0017,1.0064,1.0096,1.0159,1.0208,1.026,1.0292,1.0316,1.0322,1.0327,1.0317,1.0299,1.0308,1.0295,1.0321,1.0321,1.0321,1.0322,1.0322,0.9697,0.9722,0.977,0.9814,0.9849,0.9886,0.9915,0.9951,0.9991,1.0045,1.0068,1.0116,1.0164,1.0237,1.0268,1.0307,1.0312,1.032,1.0323,1.0324,1.0321,1.0292,1.0316,1.0316,1.0317,1.0317,1.0317,0,0.9712,0.9744,0.9783,0.9839,0.9873,0.989,0.9936,0.9963,1.0005,1.0047,1.0086,1.014,1.0186,1.0233,1.0282,1.0304,1.0316,1.0315,1.0314,1.0321,1.0314,1.0304,1.0304,1.0304,1.0304,1.0304,1.0304,1.0304,0.9724,0.9768,0.9791,0.9852,0.9884,0.993,0.9955,0.9989,1.0023,1.0081,1.0118,1.0148,1.0192,1.0244,1.0287,1.03,1.0316,1.0313,1.0328,1.0321,1.0322,1.0322,1.0313,1.0316,1.0316,1.0333,1.0333,1.0333]}]]